Location: Seattle
(47.6064°N, 122.3308°W)
Time: 01:47:40
(UTC-08:00)

Tiros 1 - Pass Details

Date: 30 November 2020
Orbit: 630 x 663 km, 48.4° (Epoch: 28 January)

Event Time Altitude Azimuth Distance (km) Brightness Sun altitude
Rises 20:49:31 0° 285° (WNW) 2,984 11.3 -44.4°
Enters shadow 20:51:06 - 279° (W) 2,425 10.7 -44.7°
Reaches altitude 10° 20:52:12 10° 273° (W) 2,064 - -44.9°
Maximum altitude 20:56:04 25° 218° (SW) 1,301 - -45.5°
Drops below altitude 10° 20:59:55 10° 163° (SSE) 2,037 - -46.1°
Sets 21:02:32 0° 150° (SSE) 2,937 - -46.5°
